This demonstration page uses our WeatherBlox Daily Observations layout. Learn more.

Left ArrowRight Arrow

34.16533, -84.80231

Hourly Observations for April 21, 2020

Temp ( °F °C ) Dew Point ( °F °C ) Humidity (%) Winds ( mph kmh ) Pressure ( in mb ) Visibility ( mi km ) Precip ( " mm )
12:53 am 00:53 Clear 50 10 47 8.3 89 89 Calm 29.88 1012 10 16 0.00 0.00
1:53 am 01:53 Clear 47 8.3 45 7.2 93 93 Calm 29.89 1012 10 16 0.00 0.00
2:53 am 02:53 Clear 47 8.3 44 6.7 90 90 Calm 29.88 1012 10 16 0.00 0.00
3:53 am 03:53 Clear 46 7.8 44 6.7 93 93 Calm 29.85 1011 10 16 0.00 0.00
4:53 am 04:53 Clear 47 8.3 44 6.7 90 90 Calm 29.86 1011 10 16 0.00 0.00
5:53 am 05:53 Mostly Clear 46 7.8 43 6.1 89 89 Calm 29.88 1012 10 16 0.00 0.00
6:53 am 06:53 Mostly Clear 46 7.8 43 6.1 89 89 Calm 29.88 1012 10 16 0.00 0.00
7:53 am 07:53 Mostly Sunny 49 9.4 47 8.3 93 93 Calm 29.90 1013 10 16 0.00 0.00
9:53 am 09:53 Sunny 62 16.7 51 10.6 67 67 VRB 3 6 29.90 1013 10 16 0.00 0.00
10:53 am 10:53 Sunny 67 19.4 52 11.1 59 59 Calm 29.90 1013 10 16 0.00 0.00
11:53 am 11:53 Mostly Cloudy 68 20 53 11.7 59 59 VRB 3 6 29.91 1013 10 16 0.00 0.00
12:53 pm 12:53 Mostly Sunny 72 22.2 54 12.2 53 53 VRB 5 7 29.91 1013 10 16 0.00 0.00
1:53 pm 13:53 Mostly Cloudy 71 21.7 52 11.1 51 51 VRB 3 6 29.90 1013 10 16 0.00 0.00
2:53 pm 14:53 Partly Cloudy 73 22.8 45 7.2 37 37 VRB 5 7 29.89 1012 10 16 0.00 0.00
3:53 pm 15:53 Cloudy 75 23.9 43 6.1 32 32 VRB 7 11 29.89 1012 10 16 0.00 0.00
4:53 pm 16:53 Cloudy 76 24.4 44 6.7 32 32 N 7 11 29.89 1012 10 16 0.00 0.00
5:53 pm 17:53 Partly Cloudy 75 23.9 42 5.6 31 31 VRB 6 9 29.89 1012 10 16 0.00 0.00
6:53 pm 18:53 Sunny 73 22.8 41 5 32 32 VRB 5 7 29.91 1013 10 16 0.00 0.00
7:53 pm 19:53 Sunny 70 21.1 41 5 35 35 Calm 29.92 1013 10 16 0.00 0.00
8:53 pm 20:53 Clear 63 17.2 43 6.1 48 48 Calm 29.94 1014 10 16 0.00 0.00
9:53 pm 21:53 Clear 58 14.4 44 6.7 60 60 Calm 29.97 1015 10 16 0.00 0.00
10:53 pm 22:53 Clear 56 13.3 45 7.2 67 67 Calm 29.98 1015 10 16 0.00 0.00
11:53 pm 23:53 Clear 55 12.8 44 6.7 67 67 Calm 29.99 1016 10 16 0.00 0.00

Powered by AerisWeather